Location: Braunsdorf
(50.7357°N, 11.9136°E)
Time: 04:14:38
(UTC+00:00)

Cosmos 1943 - Pass Details

Date: 17 February 2020
Orbit: 832 x 851 km, 71.0° (Epoch: 30 March)

Event Time Altitude Azimuth Distance (km) Brightness Sun altitude
Rises 05:00:08 0° 201° (SSW) 3,366 6.1 -13.5°
Reaches altitude 10° 05:02:33 10° 200° (SSW) 2,437 5.4 -13.1°
Maximum altitude 05:08:07 75° 116° (ESE) 868 3.4 -12.3°
Drops below altitude 10° 05:13:45 10° 32° (NNE) 2,463 6.0 -11.4°
Sets 05:16:13 0° 31° (NNE) 3,404 6.7 -11.0°
